Grand Marais, MN

10:08 AM CST on January 17, 2017 (GMT -0600)
Grand Marais

Weather History for KGNA - December, 2012

Change the Weather History Date:

Wednesday, December 5, 2012

  Actual Average (KCKC) Record (KCKC)
Temperature  
Mean Temperature 26 °F -  
Max Temperature 37 °F 25 °F 46 °F (2001)
Min Temperature 14 °F 13 °F -7 °F (2000)
Degree Days  
Heating Degree Days 40    
Moisture  
Dew Point 18 °F    
Average Humidity 69    
Maximum Humidity 80    
Minimum Humidity 59    
Precipitation  
Precipitation 0.00 in - - ()
Sea Level Pressure  
Sea Level Pressure 30.29 in    
Wind  
Wind Speed 6 mph (ESE)    
Max Wind Speed 16 mph    
Max Gust Speed 18 mph    
Averages and records for this station are not official NWS values.
T = Trace of Precipitation, MM = Missing Value Source: NWS Daily Summary

Daily Weather History Graph

Daily Weather History Graph

Search for Another Location

Airport or City:

Trip Planner

Search our weather history database for the weather conditions in past years. The results will help you decide how hot, cold, wet, or windy it might be!

Date:

Astronomy

Dec. 05, 2012 Rise Set
Actual Time 7:34 AM CST 4:09 PM CST
Civil Twilight 6:58 AM CST 4:45 PM CST
Nautical Twilight 6:19 AM CST 5:24 PM CST
Astronomical Twilight 5:42 AM CST 6:01 PM CST
Moon 11:22 PM CST (12/5) 11:38 AM CST (12/5)
Length of Visible Light 9h 46m
Length of Day
8h 35m
Waning Gibbous, 59% of the Moon is Illuminated
Dec 5
Waning Gibbous
Dec 6
Last Quarter
Dec 13
New
Dec 19
First Quarter
Dec 28
Full

Hourly Weather History & Observations

Time (CST) Temp. Windchill Dew Point Humidity Pressure Visibility Wind Dir Wind Speed Gust Speed Precip Events Conditions
12:56 AM 21.0 °F 16.2 °F 10.0 °F 63% 30.43 in - Variable 3.5 mph - N/A   Unknown
1:56 AM 18.0 °F 12.7 °F 10.9 °F 74% 30.45 in - North 3.5 mph - N/A   Unknown
2:56 AM 18.0 °F - 10.0 °F 71% 30.45 in - Calm Calm - N/A   Unknown
3:56 AM 17.1 °F - 10.9 °F 77% 30.45 in - Calm Calm - N/A   Unknown
4:56 AM 17.1 °F - 10.0 °F 74% 30.46 in - Calm Calm - N/A   Unknown
5:56 AM 15.1 °F 9.4 °F 10.0 °F 80% 30.48 in - North 3.5 mph - N/A   Unknown
6:56 AM 14.0 °F 5.1 °F 9.0 °F 80% 30.48 in - NNW 5.8 mph - N/A   Unknown
8:56 AM 21.9 °F 14.5 °F 12.9 °F 68% 30.46 in - NNE 5.8 mph - N/A   Unknown
9:56 AM 24.1 °F 15.2 °F 15.1 °F 69% 30.45 in - ENE 8.1 mph - N/A   Unknown
10:56 AM 25.0 °F 18.1 °F 17.1 °F 72% 30.43 in - NE 5.8 mph - N/A   Unknown
11:56 AM 28.9 °F 22.8 °F 19.9 °F 69% 30.37 in - SE 5.8 mph - N/A   Unknown
12:56 PM 28.9 °F 20.4 °F 19.9 °F 69% 30.35 in - SE 9.2 mph - N/A   Unknown
1:56 PM 30.0 °F 22.4 °F 21.9 °F 72% 30.32 in - SSE 8.1 mph - N/A   Unknown
2:56 PM 30.9 °F 22.8 °F 21.9 °F 69% 30.29 in - SSE 9.2 mph - N/A   Unknown
3:56 PM 30.9 °F 22.8 °F 21.9 °F 69% 30.25 in - ESE 9.2 mph - N/A   Unknown
4:56 PM 32.0 °F 24.2 °F 23.0 °F 69% 30.22 in - ESE 9.2 mph - N/A   Unknown
5:56 PM 34.0 °F 26.0 °F 24.1 °F 67% 30.18 in - SE 10.4 mph 17.3 mph N/A   Unknown
6:56 PM 36.0 °F 28.0 °F 25.0 °F 64% 30.12 in - ESE 11.5 mph 18.4 mph N/A   Unknown
7:56 PM 36.0 °F 27.5 °F 25.0 °F 64% 30.07 in - SSE 12.7 mph 18.4 mph N/A   Unknown
8:56 PM 37.0 °F 30.4 °F 24.1 °F 59% 30.03 in - SE 9.2 mph 16.1 mph N/A   Unknown
9:56 PM 37.0 °F 29.3 °F 25.0 °F 62% 30.01 in - SSE 11.5 mph - N/A   Unknown
10:56 PM 37.9 °F 30.9 °F 26.1 °F 62% 29.96 in - South 10.4 mph - N/A   Unknown
11:56 PM 37.9 °F 28.9 °F 25.0 °F 60% 29.94 in - SSW 16.1 mph - N/A   Unknown